Regional Weather Roundup
Issued by NWS Goodland, KS

Home | Current Version | Previous Version | Graphics & Text | Print | Product List | Glossary On
Versions: 1 2 3 4 5 6 7 8 9 10 11 12 13 14 15 16 17 18 19 20 21 22 23 24 25 26 27 28 29 30 31 32 33 34 35 36 37 38 39 40 41 42 43 44 45 46 47 48 49 50
000
ASUS43 KGLD 281308
RWRGLD

GOODLAND FORECAST AREA HOURLY WEATHER ROUNDUP
NATIONAL WEATHER SERVICE GOODLAND KS
700 AM MDT SAT MAY 28 2016

...OFFICIAL OBSERVATIONS...

CITY           SKY/WX    TMP DP  RH WIND       PRES   REMARKS
GOODLAND KS    SUNNY     51  47  86 NW8       29.94R
HILL CITY KS   SUNNY     56  53  90 W8        29.87R
IMPERIAL NEB   SUNNY     52  46  80 NW7       29.91R
MCCOOK NEB     SUNNY     54  51  90 NW9       29.88R
AKRON CO       SUNNY     47  44  90 W12       29.98R
BURLINGTON CO  SUNNY     48  43  82 W8        29.97R
LIMON CO       SUNNY     44  40  85 NW5       30.02R
$$

...UNOFFICIAL OBSERVATIONS...

CITY           SKY/WX    TMP DP  RH WIND       PRES   REMARKS
GOVE KS          N/A     55  32  41 MISG        N/A
LENORA KS        N/A     56  32  40 MISG        N/A
SHARON SPRINGS   N/A     52  49  90 NW8         N/A
TRIBUNE KS     SUNNY     52  48  87 NW12      29.98R
KIT CARSON CO    N/A     47  43  86 CALM        N/A
YUMA CO          N/A     48  46  92 W10         N/A
$$




USA.gov is the U.S. government's official web portal to all federal, state and local government web resources and services.